QPF
0.00 0.00 0.00 0.00 0.00 0.00 0.00 0.00 0.00 0.01 0.01 0.00 0.00 0.00 0.00 0.00 0.00 0.00 0.00 0.00 0.00 0.00 0.00 0.00 0.00 0.00 0.00 0.00 0.00 0.00 0.00 0.00 0.00 0.00 0.00 0.00 0.00 0.00
0.00 0.00 0.00 0.00 0.00 0.00 0.00 0.00 0.00 0.01 0.00 0.00 0.00 0.00 0.00 0.00 0.00 0.00 0.00 0.00 0.00 0.00 0.00 0.00 0.00 0.00 0.00 0.00 0.00 0.00 0.00 0.00 0.00 0.00 0.00 0.00 0.00 0.00
0.00 0.00 0.00 0.00 0.00 0.00 0.00 0.00 0.00 0.00 0.00 0.00 0.00 0.00 0.00 0.00 0.00 0.00 0.00 0.00 0.00 0.00 0.00 0.00 0.00 0.00 0.00 0.00 0.00 0.00 0.00 0.00 0.00 0.00 0.00 0.00 0.00 0.00
0.00 0.00 0.00 0.00 0.00 0.00 0.00 0.00 0.00 0.00 0.00 0.00 0.00 0.00 0.00 0.00 0.00 0.00 0.00 0.00 0.00 0.00 0.00 0.00 0.00 0.00 0.00 0.00 0.00 0.00 0.00 0.00 0.00 0.00 0.00 0.00 0.00 0.00
0.00 0.00 0.00 0.00 0.00 0.00 0.00 0.00 0.00 0.00 0.00 0.00 0.00 0.00 0.00 0.00 0.00 0.00 0.00 0.00 0.00 0.00 0.00 0.00 0.00 0.00 0.00 0.00 0.00 0.00 0.00 0.00 0.00 0.00 0.00 0.00 0.00 0.00
0.00 0.00 0.00 0.00 0.00 0.00 0.00 0.00 0.00 0.00 0.00 0.00 0.00 0.00 0.00 0.00 0.00 0.00 0.00 0.00 0.00 0.00 0.00 0.00 0.00 0.00 0.00 0.00 0.00 0.00 0.00 0.00 0.00 0.00 0.00 0.00 0.00 0.00
0.00 0.00 0.00 0.00 0.00 0.00 0.00 0.00 0.00 0.00 0.00 0.00 0.00 0.00 0.00 0.00 0.00 0.00 0.00 0.00 0.00 0.00 0.00 0.00 0.00 0.00 0.00 0.00 0.00 0.00 0.00 0.00 0.00 0.00 0.00 0.00 0.00 0.00
0.00 0.00 0.00 0.00 0.00 0.00 0.00 0.00 0.00 0.00 0.00 0.00 0.00 0.00 0.00 0.00 0.00 0.00 0.00 0.00 0.00 0.00 0.00 0.00 0.00 0.00 0.00 0.00 0.00 0.00 0.00 0.00 0.00 0.00 0.00 0.00 0.00 0.00
0.00 0.00 0.00 0.00 0.00 0.00 0.00 0.00 0.00 0.00 0.00 0.00 0.00 0.00 0.00 0.00 0.00 0.00 0.00 0.01 0.01 0.00 0.00 0.00 0.00 0.00 0.00 0.00 0.00 0.00 0.00 0.00 0.00 0.00 0.00 0.00 0.00 0.00
0.00 0.00 0.00 0.00 0.00 0.00 0.00 0.00 0.00 0.00 0.00 0.00 0.00 0.00 0.00 0.00 0.00 0.00 0.00 0.00 0.00 0.00 0.00 0.00 0.00 0.00 0.00 0.00 0.00 0.00 0.00 0.00 0.00 0.00 0.00 0.00 0.00 0.00
0.00 0.00 0.00 0.00 0.00 0.00 0.00 0.00 0.00 0.00 0.00 0.00 0.00 0.00 0.00 0.00 0.00 0.00 0.00 0.00 0.00 0.00 0.00 0.00 0.00 0.00 0.00 0.00 0.00 0.00 0.00 0.00 0.00 0.00 0.00 0.00 0.00 0.00
0.00 0.00 0.00 0.00 0.00 0.00 0.00 0.00 0.00 0.00 0.00 0.00 0.00 0.00 0.00 0.00 0.00 0.00 0.00 0.00 0.00 0.00 0.00 0.00 0.00 0.01 0.02 0.00 0.00 0.00 0.00 0.00 0.00 0.00 0.01 0.01 0.00 0.00
0.00 0.00 0.00 0.00 0.00 0.00 0.00 0.00 0.00 0.00 0.00 0.00 0.00 0.00 0.00 0.00 0.00 0.00 0.00 0.00 0.00 0.00 0.00 0.01 0.01 0.00 0.03 0.00 0.00 0.00 0.00 0.00 0.01 0.01 0.00 0.00 0.00 0.01
0.00 0.00 0.00 0.00 0.00 0.00 0.00 0.00 0.00 0.00 0.00 0.00 0.00 0.00 0.00 0.00 0.00 0.00 0.00 0.00 0.00 0.00 0.00 0.00 0.01 0.01 0.02 0.01 0.00 0.00 0.00 0.00 0.02 0.03 0.01 0.00 0.00 0.00
0.00 0.00 0.00 0.00 0.00 0.01 0.00 0.00 0.00 0.00 0.00 0.00 0.00 0.00 0.00 0.00 0.00 0.00 0.00 0.00 0.00 0.00 0.00 0.00 0.00 0.00 0.00 0.00 0.00 0.00 0.00 0.00 0.00 0.04 0.01 0.00 0.00 0.00
0.01 0.00 0.00 0.01 0.01 0.02 0.01 0.01 0.01 0.00 0.00 0.00 0.00 0.00 0.00 0.00 0.00 0.00 0.00 0.00 0.00 0.00 0.00 0.00 0.00 0.00 0.00 0.00 0.01 0.01 0.00 0.03 0.01 0.00 0.00 0.00 0.00 0.00
0.06 0.09 0.04 0.02 0.02 0.02 0.02 0.02 0.02 0.01 0.01 0.00 0.00 0.00 0.00 0.00 0.00 0.00 0.00 0.00 0.00 0.00 0.00 0.00 0.00 0.00 0.00 0.00 0.01 0.01 0.00 0.01 0.08 0.04 0.00 0.00 0.00 0.00
0.17 0.13 0.03 0.00 0.01 0.01 0.01 0.02 0.01 0.01 0.00 0.00 0.00 0.00 0.00 0.00 0.00 0.00 0.00 0.00 0.00 0.00 0.00 0.00 0.00 0.00 0.00 0.00 0.01 0.02 0.00 0.00 0.04 0.02 0.00 0.00 0.00 0.00
0.15 0.06 0.02 0.00 0.00 0.01 0.02 0.01 0.01 0.00 0.00 0.00 0.00 0.00 0.00 0.00 0.00 0.00 0.00 0.00 0.00 0.00 0.00 0.00 0.00 0.00 0.00 0.00 0.00 0.02 0.01 0.00 0.00 0.00 0.00 0.00 0.00 0.00
0.08 0.05 0.01 0.00 0.00 0.02 0.03 0.03 0.02 0.00 0.00 0.00 0.00 0.00 0.00 0.00 0.00 0.00 0.00 0.00 0.00 0.00 0.00 0.00 0.00 0.00 0.01 0.01 0.00 0.00 0.01 0.01 0.00 0.00 0.00 0.00 0.00 0.00
0.05 0.03 0.01 0.00 0.00 0.01 0.04 0.04 0.02 0.01 0.00 0.00 0.00 0.00 0.00 0.00 0.00 0.00 0.00 0.00 0.00 0.00 0.00 0.00 0.00 0.00 0.00 0.02 0.02 0.01 0.02 0.01 0.00 0.00 0.00 0.00 0.00 0.00
0.01 0.01 0.02 0.04 0.03 0.01 0.02 0.04 0.02 0.01 0.00 0.00 0.00 0.00 0.00 0.00 0.00 0.00 0.00 0.00 0.00 0.00 0.00 0.00 0.00 0.00 0.00 0.00 0.00 0.01 0.02 0.01 0.00 0.00 0.00 0.01 0.01 0.01
0.04 0.05 0.05 0.04 0.04 0.04 0.04 0.04 0.03 0.01 0.00 0.00 0.00 0.00 0.00 0.00 0.00 0.00 0.00 0.00 0.00 0.00 0.00 0.00 0.00 0.00 0.00 0.00 0.00 0.00 0.01 0.02 0.01 0.00 0.00 0.00 0.01 0.01
MSLP
1026.91 1026.99 1027.01 1026.88 1026.88 1026.77 1026.74 1026.88 1026.96 1026.95 1026.75 1026.79 1026.84 1026.58 1026.57 1026.43 1026.53 1026.20 1025.99 1025.56 1024.97 1024.52 1024.22 1023.78 1023.33 1022.82 1022.46 1022.10 1021.72 1021.30 1020.88 1020.47 1020.09 1019.70 1019.36 1019.04 1018.70 1018.28
1026.62 1026.76 1026.82 1026.74 1026.67 1026.52 1026.41 1026.40 1026.54 1026.76 1026.87 1026.69 1026.65 1026.57 1026.49 1026.43 1026.29 1026.02 1025.74 1025.16 1024.76 1024.28 1023.78 1023.36 1022.91 1022.48 1021.99 1021.67 1021.29 1020.86 1020.45 1020.04 1019.59 1019.26 1018.84 1018.49 1018.23 1017.90
1026.39 1026.43 1026.35 1026.31 1026.26 1026.26 1026.27 1026.23 1026.41 1026.62 1026.74 1026.51 1026.58 1026.50 1026.46 1026.25 1026.01 1025.75 1025.38 1024.89 1024.39 1023.90 1023.47 1022.98 1022.52 1022.02 1021.68 1021.25 1020.88 1020.51 1020.04 1019.65 1019.24 1018.81 1018.49 1018.10 1017.77 1017.55
1025.90 1025.98 1025.89 1025.91 1025.95 1026.01 1026.03 1026.07 1026.16 1026.33 1026.65 1026.57 1026.48 1026.43 1026.25 1025.95 1025.70 1025.41 1024.85 1024.39 1024.02 1023.58 1022.96 1022.42 1021.89 1021.40 1020.99 1020.61 1020.24 1019.87 1019.41 1019.00 1018.64 1018.32 1018.07 1017.80 1017.47 1017.15
1025.51 1025.55 1025.47 1025.55 1025.58 1025.59 1025.57 1025.71 1025.88 1026.03 1026.32 1026.46 1026.31 1026.17 1025.87 1025.60 1025.23 1024.92 1024.54 1024.04 1023.65 1023.02 1022.36 1021.80 1021.34 1020.87 1020.38 1019.90 1019.47 1019.02 1018.61 1018.28 1018.08 1017.82 1017.51 1017.25 1016.96 1016.74
1025.07 1025.08 1025.15 1025.21 1025.17 1025.06 1025.10 1025.16 1025.40 1025.74 1025.99 1026.10 1026.03 1025.83 1025.57 1025.11 1025.00 1024.72 1023.99 1023.72 1023.16 1022.55 1021.86 1021.46 1020.91 1020.30 1019.74 1019.24 1018.79 1018.35 1017.96 1017.55 1017.21 1016.90 1016.61 1016.40 1016.20 1016.07
1024.76 1024.75 1024.70 1024.59 1024.41 1024.48 1024.52 1024.61 1024.93 1025.26 1025.53 1025.71 1025.67 1025.44 1025.15 1025.00 1024.85 1024.53 1024.04 1023.33 1022.81 1022.05 1021.36 1020.98 1020.37 1019.72 1019.14 1018.59 1018.14 1017.66 1017.29 1016.89 1016.49 1016.13 1015.79 1015.53 1015.35 1015.23
1024.34 1024.19 1024.21 1023.95 1023.92 1023.69 1023.58 1023.72 1024.07 1024.53 1024.93 1025.26 1025.15 1025.02 1024.76 1024.76 1024.54 1024.36 1023.88 1023.30 1022.36 1021.68 1021.07 1020.13 1019.95 1019.06 1018.45 1017.95 1017.35 1016.88 1016.40 1016.00 1015.63 1015.27 1014.97 1014.77 1014.60 1014.50
1023.68 1023.71 1023.66 1023.47 1023.40 1023.45 1023.27 1023.18 1023.42 1023.70 1024.14 1024.48 1024.58 1024.58 1024.44 1024.28 1024.08 1023.80 1023.45 1023.00 1022.30 1021.52 1021.14 1019.73 1019.30 1018.54 1017.75 1017.00 1016.36 1016.00 1015.57 1015.15 1014.74 1014.41 1014.24 1014.11 1013.93 1013.70
1022.90 1022.91 1022.93 1022.84 1022.87 1022.84 1022.95 1023.08 1023.18 1023.35 1023.59 1023.71 1023.82 1023.83 1023.86 1023.70 1023.57 1023.10 1022.80 1022.43 1021.89 1021.24 1020.76 1019.78 1018.63 1018.09 1017.11 1016.25 1015.60 1015.27 1014.88 1014.53 1014.18 1013.86 1013.68 1013.50 1013.30 1012.97
1022.02 1022.05 1022.08 1022.07 1022.05 1022.10 1022.38 1022.62 1022.70 1022.80 1022.85 1022.84 1022.85 1022.95 1022.88 1022.76 1022.62 1022.57 1022.42 1022.14 1021.38 1020.70 1020.07 1019.75 1018.61 1017.77 1016.75 1015.61 1015.10 1014.77 1014.44 1014.09 1013.64 1013.28 1012.98 1012.62 1012.34 1012.04
1021.24 1021.16 1021.12 1021.11 1021.15 1021.34 1021.61 1021.93 1022.22 1022.11 1022.34 1022.48 1022.60 1022.55 1022.43 1022.45 1022.21 1022.14 1021.99 1021.85 1021.45 1020.51 1019.84 1019.71 1018.86 1018.41 1016.68 1015.35 1014.88 1014.52 1014.04 1013.58 1013.14 1012.72 1012.32 1011.63 1011.17 1011.02
1020.25 1020.20 1020.21 1020.06 1020.12 1020.31 1020.60 1021.01 1021.16 1021.40 1021.73 1021.99 1022.09 1022.11 1022.06 1021.93 1021.70 1021.48 1021.39 1021.39 1021.08 1020.57 1019.77 1019.62 1018.71 1018.38 1017.68 1016.26 1014.76 1014.27 1013.89 1013.11 1012.60 1012.05 1011.52 1010.97 1010.47 1010.21
1018.93 1018.92 1019.11 1019.18 1019.18 1019.23 1019.54 1019.76 1020.23 1020.77 1021.15 1021.48 1021.63 1021.62 1021.53 1021.30 1020.96 1020.83 1020.71 1020.52 1020.32 1019.95 1019.36 1019.27 1018.73 1018.19 1017.52 1016.44 1015.31 1013.91 1013.51 1012.74 1012.24 1011.75 1011.16 1010.60 1010.15 1009.83
1017.63 1017.52 1017.70 1018.11 1018.33 1018.43 1018.52 1018.79 1019.38 1019.91 1020.29 1020.73 1020.77 1020.77 1020.65 1020.41 1020.37 1020.33 1020.14 1019.96 1019.63 1019.17 1018.68 1018.47 1018.26 1017.77 1017.33 1016.48 1015.48 1014.39 1013.35 1012.34 1012.02 1011.66 1010.96 1010.55 1010.30 1010.10
1016.47 1016.32 1016.30 1016.74 1017.11 1017.34 1017.63 1017.87 1018.22 1018.70 1019.07 1019.47 1019.74 1019.77 1019.91 1020.00 1019.93 1019.93 1019.95 1019.67 1019.37 1018.79 1018.26 1017.91 1017.59 1017.29 1016.72 1015.92 1015.28 1014.27 1013.70 1013.04 1012.05 1011.32 1010.91 1010.55 1010.45 1010.35
1015.68 1015.44 1015.49 1015.77 1016.11 1016.44 1016.75 1016.99 1017.32 1017.76 1018.19 1018.53 1018.95 1019.19 1019.33 1019.45 1019.48 1019.53 1019.58 1019.38 1019.19 1018.72 1018.04 1017.43 1016.99 1016.59 1015.94 1015.37 1014.74 1014.09 1013.62 1012.94 1012.26 1011.50 1010.95 1010.65 1010.69 1010.55
1014.71 1014.62 1014.45 1014.93 1015.29 1015.52 1015.90 1015.98 1016.31 1016.71 1017.06 1017.45 1017.94 1018.25 1018.57 1018.81 1018.99 1019.18 1019.24 1019.17 1018.95 1018.50 1018.00 1017.41 1016.87 1016.22 1015.37 1014.56 1014.33 1013.92 1013.62 1013.16 1012.39 1011.74 1011.31 1010.99 1010.79 1010.60
1013.74 1013.62 1013.66 1013.98 1014.45 1014.71 1014.91 1015.03 1015.24 1015.63 1016.05 1016.51 1016.89 1017.31 1017.70 1018.10 1018.50 1018.72 1018.84 1018.88 1018.62 1018.29 1017.83 1017.45 1017.04 1016.69 1016.01 1015.45 1014.47 1014.02 1013.80 1013.22 1012.73 1012.03 1011.62 1011.31 1011.07 1010.76
1012.96 1012.59 1012.83 1013.20 1013.52 1013.85 1014.07 1014.21 1014.35 1014.76 1015.36 1015.75 1016.16 1016.53 1017.02 1017.45 1017.98 1018.24 1018.40 1018.54 1018.42 1018.08 1017.65 1017.27 1017.00 1016.73 1016.41 1015.73 1015.15 1014.20 1013.93 1013.39 1013.08 1012.48 1011.95 1011.57 1011.16 1010.83
1013.16 1013.00 1012.74 1012.67 1012.75 1012.96 1013.09 1013.31 1013.58 1013.89 1014.39 1014.98 1015.33 1015.81 1016.40 1016.86 1017.28 1017.59 1017.86 1017.98 1018.06 1017.85 1017.49 1017.12 1016.74 1016.43 1015.85 1015.40 1015.13 1014.44 1013.76 1013.59 1013.28 1012.94 1012.40 1011.81 1011.39 1011.14
1014.66 1013.59 1012.62 1012.12 1011.99 1012.17 1012.32 1012.47 1012.86 1013.24 1013.63 1014.17 1014.59 1015.08 1015.58 1016.08 1016.52 1016.99 1017.41 1017.68 1017.65 1017.57 1017.36 1016.98 1016.49 1016.04 1015.54 1015.29 1015.02 1014.43 1013.88 1013.68 1013.42 1013.17 1012.87 1012.56 1012.21 1011.97
1016.45 1015.38 1014.17 1013.20 1012.06 1011.67 1011.70 1011.85 1012.10 1012.39 1012.74 1013.17 1013.70 1014.28 1014.89 1015.44 1015.89 1016.39 1016.85 1017.13 1017.28 1017.33 1017.25 1017.00 1016.59 1016.24 1015.86 1015.56 1015.29 1014.94 1014.44 1013.97 1013.59 1013.34 1013.13 1012.89 1012.66 1012.47
Thickness
5416 5406 5397 5389 5379 5370 5360 5348 5338 5333 5331 5315 5299 5290 5279 5270 5261 5256 5252 5249 5248 5247 5246 5246 5247 5250 5251 5253 5255 5258 5261 5264 5268 5272 5278 5283 5293 5303
5403 5392 5382 5374 5365 5355 5344 5334 5322 5310 5302 5291 5280 5270 5260 5251 5246 5242 5239 5237 5236 5235 5236 5236 5238 5239 5242 5242 5244 5247 5249 5252 5257 5261 5267 5274 5280 5288
5388 5378 5368 5360 5349 5339 5327 5316 5303 5290 5282 5276 5262 5252 5244 5238 5234 5231 5228 5228 5227 5226 5226 5227 5228 5230 5231 5233 5235 5237 5241 5243 5247 5252 5257 5263 5270 5275
5376 5365 5355 5346 5334 5323 5312 5301 5289 5277 5265 5258 5247 5239 5232 5227 5224 5221 5220 5219 5218 5218 5219 5219 5221 5223 5225 5227 5229 5231 5234 5237 5240 5244 5248 5254 5260 5265
5362 5352 5343 5332 5320 5309 5298 5287 5276 5265 5250 5240 5235 5228 5224 5218 5216 5214 5213 5212 5209 5210 5211 5213 5215 5217 5219 5220 5223 5226 5229 5231 5233 5236 5240 5246 5251 5257
5350 5340 5330 5318 5307 5296 5287 5276 5264 5251 5238 5229 5224 5220 5215 5212 5208 5207 5209 5205 5203 5202 5204 5206 5209 5212 5213 5217 5219 5221 5223 5226 5228 5231 5235 5239 5243 5248
5336 5325 5315 5306 5296 5287 5277 5267 5254 5240 5229 5221 5215 5212 5209 5204 5202 5200 5198 5200 5199 5198 5201 5200 5203 5208 5211 5214 5216 5218 5218 5219 5221 5223 5226 5230 5235 5240
5323 5313 5304 5295 5286 5278 5270 5259 5246 5232 5222 5213 5209 5206 5203 5198 5196 5193 5191 5191 5195 5192 5196 5199 5198 5205 5207 5209 5212 5212 5211 5211 5212 5213 5216 5219 5223 5228
5311 5302 5294 5285 5276 5268 5259 5250 5237 5226 5217 5209 5203 5199 5195 5193 5192 5191 5188 5186 5185 5186 5189 5195 5196 5199 5203 5207 5209 5207 5205 5204 5205 5206 5207 5208 5212 5217
5302 5293 5285 5277 5267 5259 5248 5238 5227 5217 5209 5204 5200 5196 5193 5190 5188 5188 5186 5184 5182 5180 5184 5187 5194 5195 5199 5203 5203 5200 5198 5197 5197 5198 5198 5199 5201 5206
5293 5283 5275 5268 5258 5249 5239 5228 5219 5211 5204 5199 5196 5192 5190 5187 5186 5185 5182 5180 5180 5178 5181 5180 5185 5190 5194 5199 5198 5194 5190 5190 5192 5191 5189 5189 5191 5196
5284 5275 5264 5259 5251 5240 5230 5219 5209 5205 5198 5193 5189 5187 5185 5183 5182 5181 5179 5176 5173 5175 5176 5174 5175 5178 5189 5191 5188 5186 5185 5187 5186 5185 5184 5186 5189 5191
5274 5269 5256 5248 5243 5234 5223 5212 5205 5200 5193 5188 5184 5181 5180 5179 5179 5178 5176 5174 5172 5168 5170 5169 5170 5170 5173 5179 5183 5181 5180 5183 5184 5184 5186 5188 5189 5191
5265 5260 5248 5237 5231 5225 5216 5209 5201 5194 5187 5182 5178 5177 5176 5176 5177 5176 5175 5173 5170 5169 5167 5164 5166 5166 5167 5170 5173 5179 5179 5182 5182 5184 5186 5188 5190 5191
5252 5247 5237 5226 5218 5213 5208 5202 5195 5190 5184 5178 5177 5175 5175 5175 5174 5173 5172 5171 5169 5169 5168 5165 5163 5163 5162 5164 5167 5170 5175 5182 5181 5182 5186 5188 5188 5189
5237 5232 5226 5219 5211 5206 5200 5196 5191 5187 5184 5179 5176 5175 5172 5171 5171 5170 5168 5168 5166 5165 5167 5165 5163 5162 5161 5164 5165 5169 5168 5172 5178 5183 5185 5186 5186 5187
5222 5217 5212 5208 5202 5199 5194 5190 5186 5183 5180 5176 5173 5171 5169 5168 5167 5166 5165 5165 5163 5164 5164 5164 5163 5162 5164 5164 5165 5167 5166 5170 5174 5179 5182 5185 5184 5186
5212 5207 5205 5200 5194 5192 5188 5186 5183 5180 5178 5175 5172 5171 5169 5165 5163 5162 5161 5160 5159 5161 5161 5162 5161 5162 5166 5169 5166 5166 5164 5165 5171 5176 5178 5180 5183 5185
5207 5202 5199 5194 5188 5186 5184 5182 5180 5178 5176 5173 5172 5169 5168 5164 5160 5159 5157 5156 5157 5157 5159 5158 5156 5155 5158 5154 5163 5163 5162 5165 5167 5172 5175 5177 5179 5183
5201 5199 5192 5187 5184 5181 5179 5177 5177 5175 5171 5169 5168 5168 5165 5162 5158 5156 5155 5151 5152 5154 5156 5156 5153 5152 5151 5155 5156 5161 5160 5162 5163 5166 5170 5172 5176 5181
5189 5185 5183 5181 5179 5176 5176 5174 5173 5173 5170 5166 5167 5165 5162 5160 5156 5154 5152 5148 5146 5151 5152 5152 5152 5151 5153 5154 5155 5159 5161 5160 5160 5162 5165 5169 5174 5178
5164 5171 5174 5175 5175 5172 5172 5171 5169 5168 5166 5164 5164 5163 5161 5158 5156 5151 5146 5145 5147 5147 5147 5149 5150 5152 5153 5154 5155 5157 5160 5158 5158 5159 5160 5163 5167 5170
5135 5142 5149 5156 5165 5168 5168 5167 5166 5166 5165 5165 5164 5162 5159 5155 5154 5150 5145 5143 5143 5143 5143 5145 5146 5148 5149 5150 5149 5150 5153 5156 5157 5158 5159 5160 5162 5166